User: anonymous   Login
Location: Unspecified
(42.3650°N, 71.1030°W)
Time: 22:47:27
(UTC+00:00)
Language:

Vanguard 1 Rocket - Orbit

View from above orbital plane
View from above orbital plane
View from above satellite
View from above satellite

Ground track
Ground track

The orbit data is extracted from the following two-line orbital elements,

1 00016U 58002A   24176.22034017  .00000355  00000-0  47034-3 0  9995
2 00016  34.2722 235.8103 2025601 307.6265  35.6823 10.49301889612959
Epoch (UTC): 24 June 2024 05:17:17
Eccentricity: 0.2025601
inclination: 34.2722°
perigee height: 650 km
apogee height: 4220 km
right ascension of ascending node: 235.8103°
argument of perigee: 307.6265°
revolutions per day: 10.49301889
mean anomaly at epoch: 35.6823°
orbit number at epoch: 61295

The dashed part of the orbit path shows where the satellite is in the earth's shadow,  

DLR